User: anonymous   Login
Location: La Tine
(46.4708°N, 7.0525°E)
Time: 03:42:04
(UTC+00:00)
Language:

SJ 16-02 - Orbit

View from above orbital plane
View from above orbital plane
View from above satellite
View from above satellite

Ground track
Ground track

The orbit data is extracted from the following two-line orbital elements,

1 41634U 16043A   20337.75756989  .00000191  00000-0  25142-4 0  9992
2 41634  75.0015 118.0035 0008278 252.6456 107.3827 14.85736540240233
Epoch (UTC): 02 December 2020 18:10:54
Eccentricity: 0.0008278
inclination: 75.0015°
perigee height: 605 km
apogee height: 617 km
right ascension of ascending node: 118.0035°
argument of perigee: 252.6456°
revolutions per day: 14.85736540
mean anomaly at epoch: 107.3827°
orbit number at epoch: 24023

The dashed part of the orbit path shows where the satellite is in the earth's shadow,  

DLR